DECAYED

CZ-2F DEB, 61685 (Decayed)

Orbit data source: Space-Track

CZ-2F DEB, 61685 was space debris in LEO originally from a launch on Tue, 29 Oct 2024 UTC launched from the Jiuquan Satellite Launch Center, China (JSC). Debris objects in space refer to the collection of defunct objects orbiting the Earth. Examples of debris include non-operational satellites, rocket bodies, and fragments generated from explosions, collisions, or faulty payload assembly.

Not visible in the next 10 days
CZ-2F DEB details
Identifier
61685, 2024-194C
Orbit
Decayed
Last TLE update2 months ago
Origin
Flag of CNCALT (CN / PRC)
ManufacturerCALT?
MissionDecayed spacecraft
Bus & MotorUnknown
Mass1 kg wet, 1 kg dry
Launch date (UTC)
2024-10-29 (2 months ago)
Launch vehicleUnknown
Launch site
Jiuquan Satellite Launch Center, China (JSC)
Object type
Payload
Rocket body
Debris
Shape & HBRUnknown
Radar Cross SectionSmall (<0.1 m²)

Expand to show TLE details & history

TLE from 2 months ago
0 OBJECT C
1 61685U 24194C   24304.53447202  .10360189  69059-5  81270-2 0  9998
2 61685  41.5666 336.9773 0196838 141.4270 221.5742 15.84571849   104
Epoch: 2024-10-30T12:49Z
Definitive object data (Epoch: 2024-10-30T12:49:38.382Z)
Latitude0.96583°
Longitude106.32003°
Altitude416.715 km
Speed7.606 km/s
True Right ascension22h 32m 14s
True Declination0° 57' 35"
Sunlit
Object was in full shadow at TLE epoch
Visualization observer readout
Observer readout values are unavailable because the object's trajectory could not be propagated. This is usually caused when the trajectory data is faulty or the object's orbit has decayed.
Visualization observer readout
Observer readout values are unavailable because the object's trajectory could not be propagated. This is usually caused when the trajectory data is faulty or the object's orbit has decayed.
Orbital elements
Apogee altitude451.611 km
Perigee altitude187.93 km
Semi-major axis6,697.908 km
Eccentricity0.0196838
Inclination41.5666°
RAAN336.9773°
Arg. of periapsis141.427°
True anomaly220.10464°
Mean anomaly221.5742°
Eccentric anomaly220.83673°
Mean motion3.95945 °/min
BSTAR0.008127
Orbital period90.92 mins
Loading maneuver chart data...
Loading historical data...
Loading historical data...
Loading historical data...
Loading historical data...
Loading historical data...
Loading historical data...
Loading historical data...
Other satellites on launch #194 in the year 2024 (2024-10-29 UTC)

CZ-2F DEB Visibility forecast

Observer location: undefined°, undefined

This satellite is decayed
Span
Click to sort rows by Start time (UTC) header in descending order
Start Az.
Max El. time (UTC)
Max El. Az.
Max El.
End time (UTC)
End Az.
|